Change the Weather History Date:

Sunday, November 10, 2013

  Actual Average Record
Temperature  
Mean Temperature 78 °F -  
Max Temperature 98 °F 80 °F 98 °F (2013)
Min Temperature 59 °F 56 °F 41 °F (2005)
Cooling Degree Days 14    
Growing Degree Days 28 (Base 50)    
Moisture  
Dew Point 39 °F    
Average Humidity 27    
Maximum Humidity 68    
Minimum Humidity 4    
Precipitation  
Precipitation 0.00 in 0.02 in - ()
Sea Level Pressure  
Sea Level Pressure 29.93 in    
Wind  
Wind Speed 14 mph ()    
Max Wind Speed 26 mph    
Max Gust Speed 38 mph    
Visibility 19.0 miles    
Events      
Averages and records for this station are not official NWS values.
T = Trace of Precipitation, MM = Missing Value Source: Averaged Metar Reports

Daily Weather History Graph

Daily Weather History Graph

Search for Another Location

Airport or City:

Trip Planner

Search our weather history database for the weather conditions in past years. The results will help you decide how hot, cold, wet, or windy it might be!

Date:

Astronomy

Nov. 10, 2013 Rise Set
Actual Time 5:11 AM AWST 6:48 PM AWST
Civil Twilight 4:45 AM AWST 7:15 PM AWST
Nautical Twilight 4:13 AM AWST 7:47 PM AWST
Astronomical Twilight 3:40 AM AWST 8:20 PM AWST
Moon 11:41 AM AWST (11/10) 12:15 AM AWST (11/10)
Length of Visible Light 14h 30m
Length of Day
13h 37m
Waxing Crescent, 49% of the Moon is Illuminated
Nov 10
Waxing Crescent
Nov 10
First Quarter
Nov 17
Full
Nov 26
Last Quarter
Dec 3
New

Hourly Weather History & Observations

Time (AWST) Temp. Dew Point Humidity Pressure Visibility Wind Dir Wind Speed Gust Speed Precip Events Conditions
12:00 AM 70 °F 44 °F 28% 29.98 in 19 mi ENE 6.9 mph - -   Partly Cloudy
12:00 AM 69.8 °F 44.6 °F 40% 29.98 in - NE 6.9 mph - N/A   Clear
12:30 AM 71.6 °F 35.6 °F 27% 29.95 in - East 15.0 mph 26.5 mph N/A   Clear
1:00 AM 71.6 °F 37.4 °F 29% 29.95 in - East 20.7 mph - N/A   Clear
1:30 AM 69.8 °F 41.0 °F 35% 29.95 in - East 24.2 mph - N/A   Clear
2:00 AM 70 °F 43 °F 26% 29.94 in - East 25.3 mph - -  
2:00 AM 69.8 °F 42.8 °F 38% 29.95 in - East 25.3 mph - N/A   Clear
2:17 AM 69.8 °F 44.6 °F 40% 29.95 in - East 26.5 mph 38.0 mph N/A   Clear
2:30 AM 68.0 °F 44.6 °F 43% 29.95 in - East 24.2 mph - N/A   Clear
2:52 AM 68.0 °F 44.6 °F 43% 29.95 in - ENE 21.9 mph 33.4 mph N/A   Clear
3:00 AM 67 °F 44 °F 32% 29.95 in 19 mi East 23.0 mph - -   Partly Cloudy
3:00 AM 68.0 °F 44.6 °F 43% 29.95 in - East 23.0 mph - N/A   Clear
3:19 AM 68.0 °F 44.6 °F 43% 29.95 in - ENE 18.4 mph 29.9 mph N/A   Clear
3:30 AM 66.2 °F 44.6 °F 46% 29.95 in - ENE 21.9 mph - N/A   Clear
4:00 AM 66.2 °F 44.6 °F 46% 29.95 in - ENE 18.4 mph 31.1 mph N/A   Clear
4:30 AM 64.4 °F 44.6 °F 49% 29.95 in - ENE 19.6 mph - N/A   Clear
5:00 AM 64 °F 44 °F 36% 29.98 in - ENE 12.7 mph - -  
5:00 AM 64.4 °F 44.6 °F 49% 29.98 in - ENE 12.7 mph - N/A   Clear
5:30 AM 64.4 °F 44.6 °F 49% 29.98 in - ENE 18.4 mph - N/A   Clear
6:00 AM 64 °F 43 °F 35% 30.00 in 19 mi ENE 18.4 mph - -   Partly Cloudy
6:04 AM 64.4 °F 42.8 °F 45% 29.98 in - ENE 17.3 mph 28.8 mph N/A   Clear
6:30 AM 66.2 °F 42.8 °F 43% 29.98 in - ENE 19.6 mph - N/A   Clear
7:00 AM 68.0 °F 42.8 °F 40% 29.98 in - ENE 17.3 mph - N/A   Clear
7:30 AM 71.6 °F 41.0 °F 33% 29.98 in - ENE 15.0 mph - N/A   Clear
8:00 AM 75 °F 38 °F 17% 30.00 in - NE 16.1 mph - -  
8:00 AM 75.2 °F 39.2 °F 27% 29.98 in - NE 16.1 mph - N/A   Clear
8:30 AM 78.8 °F 35.6 °F 21% 29.98 in - NE 18.4 mph - N/A   Clear
9:00 AM 82 °F 35 °F 10% 30.00 in 19 mi NE 18.4 mph - -   Partly Cloudy
9:00 AM 82.4 °F 35.6 °F 19% 29.98 in - NE 18.4 mph - N/A   Clear
9:30 AM 84.2 °F 32.0 °F 15% 29.98 in - NE 19.6 mph - N/A   Clear
10:00 AM 86.0 °F 32.0 °F 14% 29.98 in - NE 18.4 mph - N/A   Clear
10:30 AM 87.8 °F 33.8 °F 15% 29.98 in - NE 16.1 mph - N/A   Clear
11:00 AM 90 °F 33 °F 6% 29.96 in - NE 15.0 mph - -  
11:00 AM 89.6 °F 33.8 °F 14% 29.95 in - NE 15.0 mph - N/A   Clear
11:30 AM 93.2 °F 28.4 °F 10% 29.95 in - NNE 15.0 mph - N/A   Clear
12:00 PM 94 °F 28 °F 4% 29.93 in 19 mi NE 16.1 mph - -   Smoke
12:00 PM 93.2 °F 28.4 °F 10% 29.92 in - NNE 15.0 mph - N/A   Clear
12:30 PM 95.0 °F 30.2 °F 10% 29.92 in - NNE 12.7 mph - N/A   Clear
1:00 PM 96.8 °F 30.2 °F 10% 29.89 in - North 11.5 mph - N/A   Clear
1:30 PM 96.8 °F 30.2 °F 10% 29.89 in - NE 13.8 mph - N/A   Clear
2:00 PM 98 °F 30 °F 4% 29.88 in - NNE 11.5 mph - -  
2:00 PM 98.6 °F 30.2 °F 9% 29.86 in - NNE 11.5 mph - N/A   Clear
2:30 PM 98.6 °F 30.2 °F 9% 29.86 in - North 10.4 mph - N/A   Clear
3:00 PM 98 °F 28 °F 4% 29.86 in 19 mi North 8.1 mph - -   Partly Cloudy
3:00 PM 96.8 °F 28.4 °F 9% 29.86 in - North 8.1 mph - N/A   Clear
3:30 PM 98.6 °F 30.2 °F 9% 29.86 in - WSW 11.5 mph - N/A   Clear
4:00 PM 95.0 °F 26.6 °F 9% 29.86 in - WSW 15.0 mph - N/A   Clear
4:30 PM 93.2 °F 33.8 °F 12% 29.86 in - WSW 15.0 mph - N/A   Clear
5:00 PM 90 °F 38 °F 9% 29.87 in - WSW 15.0 mph - -  
5:00 PM 89.6 °F 39.2 °F 17% 29.86 in - WSW 15.0 mph - N/A   Clear
5:30 PM 87.8 °F 35.6 °F 16% 29.86 in - WSW 12.7 mph - N/A   Clear
6:00 PM 86 °F 38 °F 10% 29.89 in 19 mi SSW 8.1 mph - -   Partly Cloudy
6:00 PM 86.0 °F 37.4 °F 18% 29.89 in - SSW 8.1 mph - N/A   Clear
6:30 PM 84.2 °F 33.8 °F 16% 29.89 in - WSW 12.7 mph - N/A   Clear
7:00 PM 80.6 °F 35.6 °F 20% 29.89 in - WSW 9.2 mph - N/A   Clear
7:30 PM 78.8 °F 33.8 °F 20% 29.92 in - WSW 10.4 mph - N/A   Clear
8:00 PM 78 °F 38 °F 14% 29.92 in - SW 9.2 mph - -  
8:00 PM 77.0 °F 37.4 °F 24% 29.92 in - SW 9.2 mph - N/A   Clear
8:30 PM 75.2 °F 42.8 °F 31% 29.92 in - SW 10.4 mph - N/A   Clear
9:00 PM 74 °F 45 °F 25% 29.94 in 19 mi SSW 8.1 mph - -   Partly Cloudy
9:00 PM 73.4 °F 44.6 °F 36% 29.92 in - SSW 8.1 mph - N/A   Clear
9:30 PM 73.4 °F 46.4 °F 38% 29.92 in - South 8.1 mph - N/A   Clear
10:00 PM 69.8 °F 48.2 °F 46% 29.92 in - SSW 6.9 mph - N/A   Clear
10:30 PM 64.4 °F 50.0 °F 59% 29.92 in - SSW 5.8 mph - N/A   Clear
11:00 PM 65 °F 49 °F 46% 29.94 in - SW 8.1 mph - -  
11:00 PM 64.4 °F 50.0 °F 59% 29.92 in - SW 8.1 mph - N/A   Clear
11:30 PM 60.8 °F 50.0 °F 68% 29.92 in - South 6.9 mph - N/A   Clear